Regional Weather Roundup
Issued by NWS

Home | Current Version | Previous Version | Text Only | Print | Product List | Glossary On
Versions: 1 2 3 4 5 6 7 8 9 10 11 12 13 14 15 16 17 18 19 20 21 22 23 24 25 26 27
000
ASUS42 KKEY 241310
RWRKEY

FLORIDA REGIONAL WEATHER ROUNDUP FOR THE FLORIDA KEYS
NATIONAL WEATHER SERVICE KEY WEST FLORIDA
900 AM EDT THU APR 24 2014

...SOUTH FLORIDA AND THE KEYS...

CITY           SKY/WX    TMP DP  RH WIND       PRES   REMARKS
FORT MYERS     SUNNY     70  65  84 CALM      30.01R HAZE
SW REGIONAL AP SUNNY     68  64  87 NW3       30.01R
NAPLES         SUNNY     72  66  81 NE3       30.01R
MIAMI          SUNNY     73  64  73 CALM      30.01R
WEST KENDALL   SUNNY     67  66  97 W5        30.02R
HOMESTEAD      SUNNY     70  61  72 W3        30.02R
MARATHON       SUNNY     76  66  71 NE6       30.01R
BOCA CHICA NAS MOSUNNY   75  67  76 E5        30.01R
KEY WEST INTL  SUNNY     75  67  76 VRB5      30.01R

...INTERNATIONAL WEATHER...

CITY           SKY/WX    TMP DP  RH WIND       PRES   REMARKS
NASSAU BAHAMAS NOT AVBL
CANCUN MEXICO  MOSUNNY   70  68  94 CALM      29.94R
COZUMEL MEXICO MOSUNNY   72  68  88 SE5       29.94R

ADJACENT COASTAL WATERS...

STATION/POSITION TIME  SKY/WX   TEMP    WIND        PRES    WAVE
                                AIR SEA DIR/SP/G            HT/PER
                 (UTC)          (F)     (DEG/KT/KT) (MB)    (FT/S)
PULASKI SHOAL LI NOT AVBL
SAND KEY         NOT AVBL
SOMBRERO KEY     1300            75      90/  6/  7 1016.8R
LONG KEY         1300            73 79   70/  5/  6 1017.0R
MOLASSES REEF    1300            73 79  350/  2/  3 1016.2R
FOWEY ROCKS      1300            76 77  240/  3/  3 1016.2R
Buoy 42080       NOT AVBL

$$



USA.gov is the U.S. government's official web portal to all federal, state and local government web resources and services.